Location: Mainz-Finthen
(49.9906°N, 8.1713°E)
Time: 09:54:34
(UTC+00:00)

BEESAT - Pass Details

Date: 12 December 2021
Orbit: 699 x 708 km, 98.6° (Epoch: 21 January)

Event Time Altitude Azimuth Distance (km) Brightness Sun altitude
Rises 05:41:35 0° 149° (SSE) 3,089 ? -14.3°
Reaches altitude 10° 05:43:52 10° 145° (SE) 2,175 ? -14.0°
Maximum altitude 05:48:30 53° 69° (ENE) 868 ? -13.3°
Drops below altitude 10° 05:53:11 10° 353° (N) 2,194 ? -12.6°
Sets 05:55:29 0° 349° (N) 3,118 ? -12.2°
